DELTA 1 DEB, 10629

Orbit data source: Space-Track

DELTA 1 DEB, 10629 is space debris in LEO originally from a launch on Thu, 14 Jul 1977 UTC launched from the Air Force Eastern Test Range (AFETR). Debris objects in space refer to the collection of defunct objects orbiting the Earth. Examples of debris include non-operational satellites, rocket bodies, and fragments generated from explosions, collisions, or faulty payload assembly.

Loading next visibility...
Identifier
10629, 1977-065EY
Orbit
LEO
Country
Flag of USUS
Related business
Manufacturer
Unknown
Mission
Spacecraft
Bus & Motor
Unknown
Mass
Unknown
Launch date (UTC)
1977-07-14 (49 years ago)
Launch vehicle
Unknown
Launch site
Air Force Eastern Test Range (AFETR)
Object type
Payload
Rocket body
Debris
Shape & HBR
Unknown shape, 0.1 m
Radar Cross Section
Medium (>0.1 m² and <1 m²)

Expand to show TLE details & history
Last TLE update: 1 day ago

TLE from 1 day ago
0 DELTA 1 DEB
1 10629U 77065EY  26262.30195103 -.00000009  00000-0 -51360-4 0  9993
2 10629  29.8290   7.6181 0813501  37.2748 328.1553 12.80264043290112
Epoch: 2026-09-19T07:14Z
TLE epoch observation values (Epoch: 2026-09-19T07:14:48.568Z)
Latitude
-0.00004°
Longitude
-99.29678°
Altitude
821.485 km
Speed
7.689 km/s
True Right ascension
00h 30m 28s
True Declination
0° 00' 00"
Sunlit
Object was in full shadow at epoch
Visualization orbit readout
Latitude
Unknown
Longitude
Unknown
Altitude
Unknown
Speed
Unknown
Apparent Right ascension
Unknown
Apparent Declination
Unknown
Sunlit
N/A
Visualization observer readout
Local Sidereal Time
02:41:19
Azimuth
Unknown
Elevation
Unknown
Doppler factor
Unknown
Orbital elements
Apogee altitude
1,972.239 km
Perigee altitude
715.839 km
Semi-major axis
7,722.176 km
Eccentricity
0.08135
Inclination
29.829°
RAAN
7.6181°
Arg. of periapsis
37.2748°
True anomaly
322.78172°
Mean anomaly
328.1553°
Eccentric anomaly
325.51637°
Mean motion
3.19841 °/min
Orbital period
112.56 mins
BSTAR
-0.00005136
Loading maneuver chart data...
Computing Atmospheric mass density...
Loading historical data...
Loading historical data...
Loading historical data...
Loading historical data...
Loading historical data...
Loading historical data...
Loading historical data...

Documentation

Showing up to 5 results
|